Weather History for Oelwein, IA

Change the Weather History Date:

Tuesday, May 13, 2014

  Actual Average Record
Temperature  
Mean Temperature 48 °F -  
Max Temperature 51 °F 68 °F 88 °F (1949)
Min Temperature 44 °F 45 °F 28 °F (1953)
Degree Days  
Heating Degree Days 18    
Moisture  
Dew Point 44 °F    
Average Humidity 86    
Maximum Humidity 100    
Minimum Humidity 67    
Precipitation  
Precipitation 0.00 in - - ()
Sea Level Pressure  
Sea Level Pressure 30.06 in    
Wind  
Wind Speed 17 mph (NW)    
Max Wind Speed 23 mph    
Max Gust Speed 29 mph    
Visibility 10 miles    
Events      
Averages and records for this station are not official NWS values.
T = Trace of Precipitation, MM = Missing Value Source: NWS Daily Summary

Daily Weather History Graph

Daily Weather History Graph

Search for Another Location

Airport:

Trip Planner

Search our weather history database for the weather conditions in past years. The results will help you decide how hot, cold, wet, or windy it might be!

Date:

Astronomy

May. 13, 2014 Rise Set
Actual Time 5:47 AM CDT 8:21 PM CDT
Civil Twilight 5:15 AM CDT 8:53 PM CDT
Nautical Twilight 4:35 AM CDT 9:34 PM CDT
Astronomical Twilight 3:49 AM CDT 10:19 PM CDT
Moon 7:21 PM CDT (5/13) 5:06 AM CDT (5/13)
Length of Visible Light 15h 38m
Length of Day
14h 33m
Waxing Gibbous, 99% of the Moon is Illuminated
May 13
Waxing Gibbous
May 14
Full
May 21
Last Quarter
May 28
New
Jun 5
First Quarter

Hourly Weather History & Observations

Time (CDT) Temp. Windchill Dew Point Humidity Pressure Visibility Wind Dir Wind Speed Gust Speed Precip Events Conditions
12:15 AM 50.0 °F - 50.0 °F 100% 29.86 in 10.0 mi West 20.7 mph 26.5 mph N/A   Overcast
12:35 AM 50.0 °F - 50.0 °F 100% 29.86 in 10.0 mi WNW 17.3 mph 24.2 mph N/A   Overcast
1:15 AM 48.2 °F - 48.2 °F 100% 29.88 in 10.0 mi WNW 18.4 mph 26.5 mph N/A   Overcast
1:35 AM 48.2 °F - 48.2 °F 100% 29.90 in 10.0 mi WNW 17.3 mph 25.3 mph N/A   Overcast
1:55 AM 48.2 °F - 48.2 °F 100% 29.91 in 10.0 mi WNW 13.8 mph 25.3 mph N/A   Overcast
2:15 AM 48.2 °F - 48.2 °F 100% 29.89 in 10.0 mi WNW 17.3 mph - N/A   Overcast
2:35 AM 48.2 °F - 48.2 °F 100% 29.90 in 10.0 mi WNW 21.9 mph - N/A   Overcast
2:55 AM 48.2 °F - 48.2 °F 100% 29.90 in 10.0 mi WNW 16.1 mph 21.9 mph N/A   Overcast
3:15 AM 48.2 °F - 48.2 °F 100% 29.90 in 10.0 mi NW 19.6 mph 26.5 mph N/A   Overcast
3:35 AM 48.2 °F - 48.2 °F 100% 29.91 in 10.0 mi WNW 17.3 mph 24.2 mph N/A   Overcast
3:55 AM 48.2 °F - 48.2 °F 100% 29.92 in 10.0 mi WNW 18.4 mph 24.2 mph N/A   Overcast
4:15 AM 48.2 °F - 48.2 °F 100% 29.92 in 10.0 mi WNW 18.4 mph - N/A   Overcast
4:35 AM 48.2 °F - 48.2 °F 100% 29.93 in 10.0 mi NW 18.4 mph - N/A   Overcast
4:55 AM 46.4 °F 39.5 °F 46.4 °F 100% 29.93 in 10.0 mi WNW 17.3 mph 25.3 mph N/A   Overcast
5:15 AM 46.4 °F 39.5 °F 46.4 °F 100% 29.94 in 10.0 mi WNW 17.3 mph - N/A   Overcast
5:35 AM 46.4 °F 39.5 °F 46.4 °F 100% 29.94 in 10.0 mi WNW 17.3 mph - N/A   Overcast
5:55 AM 46.4 °F 39.0 °F 46.4 °F 100% 29.96 in 10.0 mi WNW 19.6 mph - N/A   Overcast
6:15 AM 46.4 °F 40.1 °F 46.4 °F 100% 29.97 in 10.0 mi WNW 15.0 mph 23.0 mph N/A   Overcast
6:35 AM 46.4 °F 39.5 °F 46.4 °F 100% 29.98 in 10.0 mi WNW 17.3 mph - N/A   Overcast
6:55 AM 46.4 °F 39.2 °F 44.6 °F 93% 29.98 in 10.0 mi NW 18.4 mph - N/A   Overcast
8:15 AM 46.4 °F 39.8 °F 44.6 °F 93% 30.01 in 10.0 mi NW 16.1 mph 23.0 mph N/A   Overcast
8:35 AM 46.4 °F 39.5 °F 44.6 °F 93% 30.01 in 10.0 mi NW 17.3 mph 24.2 mph N/A   Overcast
8:55 AM 46.4 °F 39.0 °F 42.8 °F 87% 30.01 in 10.0 mi NW 19.6 mph - N/A   Overcast
9:15 AM 46.4 °F 39.8 °F 44.6 °F 93% 30.02 in 10.0 mi NW 16.1 mph 23.0 mph N/A   Overcast
11:35 AM 48.2 °F - 44.6 °F 87% 30.07 in 10.0 mi WNW 17.3 mph - N/A   Overcast
11:55 AM 48.2 °F - 44.6 °F 87% 30.08 in 10.0 mi WNW 17.3 mph - N/A   Overcast
12:15 PM 48.2 °F - 44.6 °F 87% 30.08 in 10.0 mi NW 18.4 mph - N/A   Overcast
12:35 PM 50.0 °F - 44.6 °F 82% 30.09 in 10.0 mi WNW 16.1 mph - N/A   Overcast
12:55 PM 50.0 °F - 44.6 °F 82% 30.09 in - WNW 20.7 mph - N/A   Overcast
1:15 PM 50.0 °F - 42.8 °F 76% 30.09 in 10.0 mi NW 19.6 mph - N/A   Overcast
1:35 PM 50.0 °F - 44.6 °F 82% 30.09 in 10.0 mi WNW 19.6 mph 25.3 mph N/A   Overcast
1:55 PM 50.0 °F - 44.6 °F 82% 30.11 in 10.0 mi NW 16.1 mph 24.2 mph N/A   Overcast
2:15 PM 50.0 °F - 42.8 °F 76% 30.11 in 10.0 mi NW 19.6 mph - N/A   Overcast
2:35 PM 50.0 °F - 42.8 °F 76% 30.12 in 10.0 mi NW 23.0 mph - N/A   Overcast
2:55 PM 50.0 °F - 42.8 °F 76% 30.12 in 10.0 mi WNW 20.7 mph - N/A   Overcast
3:15 PM 51.8 °F - 42.8 °F 71% 30.12 in 10.0 mi WNW 21.9 mph - N/A   Overcast
3:35 PM 50.0 °F - 42.8 °F 76% 30.12 in 10.0 mi NW 19.6 mph 28.8 mph N/A   Overcast
3:55 PM 51.8 °F - 42.8 °F 71% 30.13 in 10.0 mi NW 21.9 mph - N/A   Overcast
4:15 PM 51.8 °F - 42.8 °F 71% 30.12 in 10.0 mi NW 20.7 mph - N/A   Overcast
4:35 PM 50.0 °F - 42.8 °F 76% 30.13 in 10.0 mi NW 23.0 mph - N/A   Overcast
4:55 PM 50.0 °F - 42.8 °F 76% 30.13 in 10.0 mi NW 18.4 mph 27.6 mph N/A   Overcast
5:15 PM 50.0 °F - 41.0 °F 71% 30.13 in 10.0 mi NNW 19.6 mph - N/A   Overcast
5:35 PM 50.0 °F - 41.0 °F 71% 30.14 in 10.0 mi NW 21.9 mph - N/A   Overcast
5:55 PM 50.0 °F - 41.0 °F 71% 30.15 in 10.0 mi NW 18.4 mph 25.3 mph N/A   Overcast
6:15 PM 50.0 °F - 42.8 °F 76% 30.15 in 10.0 mi NW 17.3 mph - N/A   Overcast
6:30 PM 51.8 °F - 41.0 °F 67% 30.14 in 10.0 mi NNW 18.4 mph 24.2 mph N/A   Mostly Cloudy
7:15 PM 51.8 °F - 41.0 °F 67% 30.15 in 10.0 mi NNW 13.8 mph - N/A   Clear
7:35 PM 50.0 °F - 41.0 °F 71% 30.16 in 10.0 mi NNW 11.5 mph - N/A   Scattered Clouds
7:55 PM 51.8 °F - 42.8 °F 71% 30.17 in 10.0 mi NNW 8.1 mph 15.0 mph N/A   Overcast
8:15 PM 50.0 °F - 42.8 °F 76% 30.18 in 10.0 mi NW 8.1 mph - N/A   Overcast
8:35 PM 50.0 °F - 44.6 °F 82% 30.18 in 10.0 mi NW 6.9 mph - N/A   Overcast
8:55 PM 50.0 °F - 42.8 °F 76% 30.18 in 10.0 mi NW 10.4 mph - N/A   Overcast
9:15 PM 50.0 °F - 42.8 °F 76% 30.19 in 10.0 mi NNW 9.2 mph - N/A   Overcast
9:35 PM 48.2 °F - 41.0 °F 76% 30.20 in 10.0 mi NW 9.2 mph - N/A   Overcast
9:50 PM 48.2 °F - 42.8 °F 82% 30.21 in - NW 9.2 mph - N/A   Scattered Clouds
10:15 PM 46.4 °F 41.9 °F 41.0 °F 81% 30.20 in 10.0 mi NW 9.2 mph - N/A   Clear
10:35 PM 46.4 °F 41.9 °F 42.8 °F 87% 30.21 in 10.0 mi NW 9.2 mph - N/A   Scattered Clouds
10:55 PM 46.4 °F 41.5 °F 41.0 °F 81% 30.22 in 10.0 mi NW 10.4 mph - N/A   Partly Cloudy
11:15 PM 44.6 °F 39.2 °F 41.0 °F 87% 30.22 in 10.0 mi NW 10.4 mph - N/A   Clear
11:35 PM 44.6 °F 40.2 °F 39.2 °F 81% 30.23 in 10.0 mi WNW 8.1 mph - N/A   Clear
11:55 PM 44.6 °F 40.2 °F 39.2 °F 81% 30.23 in 10.0 mi WNW 8.1 mph - N/A   Clear